Location: Eaton Estates
(41.3089°N, 82.0057°W)
Time: 08:30:26
(UTC+00:00)

USA 308 - Pass Details

Date: 24 October 2021
Orbit: 562 x 573 km, 54.0° (Epoch: 26 November)

Event Time Altitude Azimuth Distance (km) Brightness Sun altitude
Exits shadow 11:17:18 - 263° (W) 2,049 5.1 -6.9°
Reaches altitude 10° 11:17:52 10° 266° (W) 1,851 4.9 -6.8°
Maximum altitude 11:21:40 33° 331° (NNW) 965 3.8 -6.1°
Drops below altitude 10° 11:25:30 10° 37° (NE) 1,857 5.9 -5.4°
Sets 11:27:56 0° 47° (NE) 2,756 6.9 -4.9°
